H1 CPF 2 NER 2025 8 24 9 236 01 glonass129 H2 1106402 9129 37868 2025 8 24 0 0 0 2025 8 27 23 45 0 900 1 1 0 0 0 1 H9 10 0 60911 0.00000 0 13389799.687 -11453944.410 -18385189.625 10 0 60911 900.00000 0 12541156.166 -9219150.703 -20156047.694 10 0 60911 1800.00000 0 11811201.774 -6740106.264 -21533530.769 10 0 60911 2700.00000 0 11239541.907 -4072827.013 -22490858.123 10 0 60911 3600.00000 0 10855533.644 -1280710.947 -23009493.648 10 0 60911 4500.00000 0 10677025.645 1567873.227 -23079500.211 10 0 60911 5400.00000 0 10709606.161 4402202.887 -22699721.342 10 0 60911 6300.00000 0 10946389.883 7151913.689 -21877787.747 10 0 60911 7200.00000 0 11368351.139 9749693.515 -20629949.771 10 0 60911 8100.00000 0 11945187.569 12133845.884 -18980740.521 10 0 60911 9000.00000 0 12636675.859 14250616.603 -16962477.641 10 0 60911 9900.00000 0 13394460.423 16056187.862 -14614614.891 10 0 60911 10800.00000 0 14164197.877 17518258.480 -11982957.494 10 0 60911 11700.00000 0 14887965.502 18617146.761 -9118757.631 10 0 60911 12600.00000 0 15506831.230 19346372.631 -6077708.696 10 0 60911 13500.00000 0 15963476.394 19712697.711 -2918858.527 10 0 60911 14400.00000 0 16204760.821 19735624.597 296536.881 10 0 60911 15300.00000 0 16184122.736 19446379.011 3506196.808 10 0 60911 16200.00000 0 15863713.333 18886419.758 6648013.728 10 0 60911 17100.00000 0 15216177.287 18105540.602 9661243.148 10 0 60911 18000.00000 0 14226005.433 17159644.644 12487663.244 10 0 60911 18900.00000 0 12890403.724 16108284.730 15072683.161 10 0 60911 19800.00000 0 11219642.508 15012072.569 17366380.064 10 0 60911 20700.00000 0 9236871.481 13930064.107 19324446.531 10 0 60911 21600.00000 0 6977407.342 12917229.269 20909031.652 10 0 60911 22500.00000 0 4487522.507 12022110.391 22089461.169 10 0 60911 23400.00000 0 1822783.362 11284765.841 22842823.991 10 0 60911 24300.00000 0 -953995.348 10735083.581 23154414.671 10 0 60911 25200.00000 0 -3775097.836 10391534.477 23018023.665 10 0 60911 26100.00000 0 -6570461.778 10260417.346 22436069.545 10 0 60911 27000.00000 0 -9270336.798 10335627.857 21419569.819 10 0 60911 27900.00000 0 -11807939.043 10598962.088 19987949.553 10 0 60911 28800.00000 0 -14121993.449 11020943.673 18168689.663 10 0 60911 29700.00000 0 -16159059.180 11562141.750 15996819.593 10 0 60911 30600.00000 0 -17875541.851 12174926.374 13514261.914 10 0 60911 31500.00000 0 -19239308.282 12805589.277 10769039.437 10 0 60911 32400.00000 0 -20230835.400 13396741.985 7814358.354 10 0 60911 33300.00000 0 -20843843.847 13889890.735 4707583.819 10 0 60911 34200.00000 0 -21085388.197 14228079.267 1509127.134 10 0 60911 35100.00000 0 -20975398.532 14358486.780 -1718733.928 10 0 60911 36000.00000 0 -20545691.591 14234869.337 -4913078.121 10 0 60911 36900.00000 0 -19838492.540 13819739.042 -8011582.008 10 0 60911 37800.00000 0 -18904529.788 13086185.963 -10953753.701 10 0 60911 38700.00000 0 -17800783.992 12019262.891 -13682133.034 10 0 60911 39600.00000 0 -16587987.606 10616871.610 -16143432.708 10 0 60911 40500.00000 0 -15327982.304 8890110.940 -18289596.168 10 0 60911 41400.00000 0 -14081047.829 6863070.038 -20078749.960 10 0 60911 42300.00000 0 -12903316.902 4572074.531 -21476030.635 10 0 60911 43200.00000 0 -11844386.920 2064416.652 -22454269.320 10 0 60911 44100.00000 0 -10945230.271 -603377.276 -22994520.343 10 0 60911 45000.00000 0 -10236491.851 -3367668.843 -23086423.790 10 0 60911 45900.00000 0 -9737245.313 -6160129.548 -22728395.624 10 0 60911 46800.00000 0 -9454259.500 -8910360.744 -21927642.642 10 0 60911 47700.00000 0 -9381804.428 -11548601.496 -20700003.284 10 0 60911 48600.00000 0 -9502002.978 -14008411.085 -19069618.769 10 0 60911 49500.00000 0 -9785711.165 -16229214.495 -17068442.453 10 0 60911 50400.00000 0 -10193887.542 -18158605.439 -14735598.401 10 0 60911 51300.00000 0 -10679391.745 -19754312.235 -12116602.979 10 0 60911 52200.00000 0 -11189134.425 -20985746.388 -9262465.787 10 0 60911 53100.00000 0 -11666486.380 -21835071.565 -6228688.396 10 0 60911 54000.00000 0 -12053844.343 -22297750.936 -3074181.062 10 0 60911 54900.00000 0 -12295244.807 -22382552.757 139881.150 10 0 60911 55800.00000 0 -12338915.796 -22111016.615 3351240.480 10 0 60911 56700.00000 0 -12139659.641 -21516405.022 6497754.164 10 0 60911 57600.00000 0 -11660967.290 -20642186.111 9518585.138 10 0 60911 58500.00000 0 -10876776.184 -19540112.228 12355363.571 10 0 60911 59400.00000 0 -9772798.777 -18267975.380 14953298.072 10 0 60911 60300.00000 0 -8347366.571 -16887133.332 17262216.592 10 0 60911 61200.00000 0 -6611754.490 -15459909.040 19237518.518 10 0 60911 62100.00000 0 -4589971.610 -14046970.850 20841021.278 10 0 60911 63000.00000 0 -2318025.871 -12704801.305 22041686.672 10 0 60911 63900.00000 0 157308.333 -11483358.582 22816214.188 10 0 60911 64800.00000 0 2780170.705 -10424026.625 23149490.741 10 0 60911 65700.00000 0 5487676.690 -9557938.307 23034888.591 10 0 60911 66600.00000 0 8212277.524 -8904740.930 22474405.425 10 0 60911 67500.00000 0 10884323.657 -8471855.522 21478643.170 10 0 60911 68400.00000 0 13434727.826 -8254261.403 20066624.564 10 0 60911 69300.00000 0 15797619.286 -8234816.134 18265449.228 10 0 60911 70200.00000 0 17912880.353 -8385098.909 16109793.782 10 0 60911 71100.00000 0 19728460.379 -8666743.702 13641263.420 10 0 60911 72000.00000 0 21202370.571 -9033207.758 10907605.381 10 0 60911 72900.00000 0 22304275.537 -9431902.301 7961797.691 10 0 60911 73800.00000 0 23016613.613 -9806596.422 4861029.463 10 0 60911 74700.00000 0 23335197.317 -10099992.710 1665591.812 10 0 60911 75600.00000 0 23269266.977 -10256365.069 -1562299.184 10 0 60911 76500.00000 0 22840993.753 -10224145.621 -4759724.020 10 0 60911 77400.00000 0 22084451.861 -9958349.065 -7864300.815 10 0 60911 78300.00000 0 21044102.837 -9422729.185 -10815420.052 10 0 60911 79200.00000 0 19772855.908 -8591573.380 -13555447.027 10 0 60911 80100.00000 0 18329787.143 -7451056.400 -16030866.443 10 0 60911 81000.00000 0 16777614.954 -6000093.500 -18193344.898 10 0 60911 81900.00000 0 15180040.108 -4250654.811 -20000688.826 10 0 60911 82800.00000 0 13599064.230 -2227526.136 -21417677.901 10 0 60911 83700.00000 0 12092401.425 32474.665 -22416756.823 10 0 60911 84600.00000 0 10711093.262 2481793.085 -22978571.721 10 0 60911 85500.00000 0 9497428.245 5063890.564 -23092340.894 10 0 60912 0.00000 0 8483253.302 7715380.029 -22756053.368 10 0 60912 900.00000 0 7688747.084 10368455.664 -21976492.156 10 0 60912 1800.00000 0 7121706.466 12953511.040 -20769083.552 10 0 60912 2700.00000 0 6777372.423 15401840.422 -19157576.230 10 0 60912 3600.00000 0 6638801.499 17648306.800 -17173558.192 10 0 60912 4500.00000 0 6677763.978 19633866.952 -14855822.327 10 0 60912 5400.00000 0 6856128.339 21307848.792 -12249594.281 10 0 60912 6300.00000 0 7127671.188 22629887.297 -9405638.830 10 0 60912 7200.00000 0 7440234.311 23571440.021 -6379263.134 10 0 60912 8100.00000 0 7738136.312 24116821.125 -3229236.979 10 0 60912 9000.00000 0 7964736.185 24263713.154 -16651.394 10 0 60912 9900.00000 0 8065040.338 24023137.625 3196262.066 10 0 60912 10800.00000 0 7988243.348 23418887.970 6347328.683 10 0 60912 11700.00000 0 7690095.998 22486450.481 9375622.044 10 0 60912 12600.00000 0 7135001.778 21271459.789 12222627.406 10 0 60912 13500.00000 0 6297754.618 19827754.245 14833355.739 10 0 60912 14400.00000 0 5164845.630 18215112.504 17157388.430 10 0 60912 15300.00000 0 3735284.498 16496765.324 19149834.056 10 0 60912 16200.00000 0 2020901.015 14736785.215 20772180.459 10 0 60912 17100.00000 0 46113.372 12997461.277 21993027.243 10 0 60912 18000.00000 0 -2152828.509 11336766.832 22788685.835 10 0 60912 18900.00000 0 -4529095.191 9806023.611 23143636.469 10 0 60912 19800.00000 0 -7026975.957 8447858.162 23050833.682 10 0 60912 20700.00000 0 -9583955.383 7294534.504 22511854.240 10 0 60912 21600.00000 0 -12133084.967 6366731.858 21536883.900 10 0 60912 22500.00000 0 -14605554.167 5672818.411 20144541.910 10 0 60912 23400.00000 0 -16933356.371 5208651.987 18361544.875 10 0 60912 24300.00000 0 -19051940.741 4957917.004 16222214.358 10 0 60912 25200.00000 0 -20902740.554 4892984.924 13767835.512 10 0 60912 26100.00000 0 -22435472.759 4976263.525 11045877.001 10 0 60912 27000.00000 0 -23610112.113 5161979.548 8109085.477 10 0 60912 27900.00000 0 -24398456.011 5398320.507 5014470.716 10 0 60912 28800.00000 0 -24785212.635 5629845.600 1822200.366 10 0 60912 29700.00000 0 -24768564.777 5800063.453 -1405574.375 10 0 60912 30600.00000 0 -24360183.684 5854066.483 -4605938.785 10 0 60912 31500.00000 0 -23584690.758 5741108.514 -7716455.390 10 0 60912 32400.00000 0 -22478588.684 5417014.060 -10676399.704 10 0 60912 33300.00000 0 -21088706.622 4846314.502 -13427964.903 10 0 60912 34200.00000 0 -19470225.281 4004017.812 -15917409.851 10 0 60912 35100.00000 0 -17684366.014 2876934.294 -18096126.115 10 0 60912 36000.00000 0 -15795842.649 1464499.876 -19921601.469 10 0 60912 36900.00000 0 -13870185.008 -220939.582 -21358259.726 10 0 60912 37800.00000 0 -11971048.340 -2154396.222 -22378159.717 10 0 60912 38700.00000 0 -10157623.164 -4299049.673 -22961539.472 10 0 60912 39600.00000 0 -8482255.263 -6607564.117 -23097195.151 10 0 60912 40500.00000 0 -6988376.031 -9023857.216 -22782688.001 10 0 60912 41400.00000 0 -5708829.516 -11485246.110 -22024376.249 10 0 60912 42300.00000 0 -4664665.175 -13924879.772 -20837272.606 10 0 60912 43200.00000 0 -3864445.057 -16274355.267 -19244731.527 10 0 60912 44100.00000 0 -3304091.992 -18466408.065 -17277973.791 10 0 60912 45000.00000 0 -2967282.354 -20437563.838 -14975459.118 10 0 60912 45900.00000 0 -2826363.836 -22130641.349 -12382120.369 10 0 60912 46800.00000 0 -2843756.756 -23497002.706 -9548475.413 10 0 60912 47700.00000 0 -2973777.266 -24498458.308 -6529634.953 10 0 60912 48600.00000 0 -3164803.497 -25108748.637 -3384226.316 10 0 60912 49500.00000 0 -3361691.819 -25314543.021 -173254.558 10 0 60912 50400.00000 0 -3508340.420 -25115915.786 3041076.842 10 0 60912 51300.00000 0 -3550291.862 -24526282.043 6196563.071 10 0 60912 52200.00000 0 -3437265.206 -23571797.668 9232190.220 10 0 60912 53100.00000 0 -3125511.748 -22290250.033 12089300.492 10 0 60912 54000.00000 0 -2579896.115 -20729486.736 14712709.083 10 0 60912 54900.00000 0 -1775616.155 -18945448.180 17051752.646 10 0 60912 55800.00000 0 -699490.112 -16999885.682 19061250.706 10 0 60912 56700.00000 0 649242.643 -14957859.197 20702363.149 10 0 60912 57600.00000 0 2258641.160 -12885117.356 21943328.827 10 0 60912 58500.00000 0 4104315.467 -10845467.000 22760072.333 10 0 60912 59400.00000 0 6150203.299 -8898239.691 23136668.176 10 0 60912 60300.00000 0 8349840.955 -7095958.627 23065653.849 10 0 60912 61200.00000 0 10648078.084 -5482301.502 22548185.588 10 0 60912 62100.00000 0 12983168.088 -4090442.888 21594033.075 10 0 60912 63000.00000 0 15289150.102 -2941844.674 20221411.889 10 0 60912 63900.00000 0 17498426.097 -2045545.023 18456655.135 10 0 60912 64800.00000 0 19544427.935 -1397976.146 16333728.550 10 0 60912 65700.00000 0 21364264.598 -983319.506 13893596.153 10 0 60912 66600.00000 0 22901239.632 -774384.800 11183446.629 10 0 60912 67500.00000 0 24107133.293 -733977.041 8255793.492 10 0 60912 68400.00000 0 24944152.719 -816695.145 5167465.084 10 0 60912 69300.00000 0 25386466.648 -971086.753 1978503.158 10 0 60912 70200.00000 0 25421258.093 -1142068.146 -1249008.661 10 0 60912 71100.00000 0 25049248.530 -1273506.144 -4452163.314 10 0 60912 72000.00000 0 24284669.441 -1310851.172 -7568470.703 10 0 60912 72900.00000 0 23154680.827 -1203707.862 -10537094.319 10 0 60912 73800.00000 0 21698260.110 -908231.750 -13300058.054 10 0 60912 74700.00000 0 19964607.929 -389247.775 -15803397.577 10 0 60912 75600.00000 0 18011138.309 378001.817 -17998231.856 10 0 60912 76500.00000 0 15901138.736 1406556.621 -19841732.183 10 0 60912 77400.00000 0 13701199.901 2696941.240 -21297968.454 10 0 60912 78300.00000 0 11478524.656 4236907.579 -22338615.321 10 0 60912 79200.00000 0 9298230.548 6001727.989 -22943504.143 10 0 60912 80100.00000 0 7220760.222 7955027.123 -23101010.081 10 0 60912 81000.00000 0 5299508.777 10050117.296 -22808267.443 10 0 60912 81900.00000 0 3578767.310 12231780.615 -22071210.048 10 0 60912 82800.00000 0 2092067.905 14438422.270 -20904437.057 10 0 60912 83700.00000 0 860997.725 16604503.871 -19330908.310 10 0 60912 84600.00000 0 -105470.459 18663154.168 -17381476.529 10 0 60912 85500.00000 0 -811106.004 20548847.428 -15094267.000 10 0 60913 0.00000 0 -1272004.188 22200037.171 -12513918.358 10 0 60913 900.00000 0 -1515646.889 23561636.333 -9690699.028 10 0 60913 1800.00000 0 -1579482.137 24587238.798 -6679521.036 10 0 60913 2700.00000 0 -1509085.737 25240993.605 -3538866.510 10 0 60913 3600.00000 0 -1355983.831 25499052.838 -329651.560 10 0 60913 4500.00000 0 -1175229.859 25350535.384 2885951.569 10 0 60913 5400.00000 0 -1022838.747 24797968.013 6045711.191 10 0 60913 6300.00000 0 -953186.569 23857187.102 9088529.134 10 0 60913 7200.00000 0 -1016484.759 22556706.552 11955607.703 10 0 60913 8100.00000 0 -1256434.437 20936579.252 14591569.332 10 0 60913 9000.00000 0 -1708158.501 19046799.966 16945508.773 10 0 60913 9900.00000 0 -2396497.462 16945315.947 18971959.097 10 0 60913 10800.00000 0 -3334739.911 14695727.229 20631754.563 10 0 60913 11700.00000 0 -4523840.684 12364770.796 21892775.301 10 0 60913 12600.00000 0 -5952159.938 10019691.336 22730560.734 10 0 60913 13500.00000 0 -7595735.238 7725605.762 23128780.906 10 0 60913 14400.00000 0 -9419077.180 5542968.761 23079557.056 10 0 60913 15300.00000 0 -11376457.801 3525242.793 22583625.144 10 0 60913 16200.00000 0 -13413640.881 1716867.798 21650338.457 10 0 60913 17100.00000 0 -15469984.987 151614.007 20297507.962 10 0 60913 18000.00000 0 -17480834.416 -1148613.933 18551081.722 10 0 60913 18900.00000 0 -19380100.702 -2174471.502 16444667.506 10 0 60913 19800.00000 0 -21102928.732 -2929337.822 14018905.543 10 0 60913 20700.00000 0 -22588336.950 -3428940.282 11320701.442 10 0 60913 21600.00000 0 -23781721.262 -3700454.860 8402332.180 10 0 60913 22500.00000 0 -24637116.889 -3781118.934 5320441.060 10 0 60913 23400.00000 0 -25119121.657 -3716414.271 2134940.283 10 0 60913 24300.00000 0 -25204397.822 -3557896.687 -1092157.734 10 0 60913 25200.00000 0 -24882686.813 -3360764.549 -4297957.103 10 0 60913 26100.00000 0 -24157291.785 -3181270.133 -7419918.437 10 0 60913 27000.00000 0 -23045005.519 -3074085.213 -10397096.308 10 0 60913 27900.00000 0 -21575485.077 -3089734.790 -13171348.156 10 0 60913 28800.00000 0 -19790098.604 -3272210.232 -15688488.962 10 0 60913 29700.00000 0 -17740292.560 -3656865.586 -17899367.202 10 0 60913 30600.00000 0 -15485548.503 -4268688.597 -19760839.333 10 0 60913 31500.00000 0 -13091016.246 -5121021.687 -21236622.439 10 0 60913 32400.00000 0 -10624924.060 -6214788.520 -22298007.528 10 0 60913 33300.00000 0 -8155875.863 -7538259.802 -22924419.214 10 0 60913 34200.00000 0 -5750149.872 -9067368.585 -23103811.009 10 0 60913 35100.00000 0 -3469112.546 -10766561.574 -22832889.118 10 0 60913 36000.00000 0 -1366856.203 -12590150.068 -22117161.332 10 0 60913 36900.00000 0 511841.399 -14484102.791 -20970811.292 10 0 60913 37800.00000 0 2133151.525 -16388204.339 -19416401.977 10 0 60913 38700.00000 0 3475356.558 -18238487.670 -17484415.629 10 0 60913 39600.00000 0 4529493.750 -19969837.840 -15212640.561 10 0 60913 40500.00000 0 5299456.675 -21518657.368 -12645418.111 10 0 60913 41400.00000 0 5801553.462 -22825481.508 -9832765.612 10 0 60913 42300.00000 0 6063543.552 -23837434.225 -6829393.464 10 0 60913 43200.00000 0 6123196.505 -24510422.863 -3693636.175 10 0 60913 44100.00000 0 6026436.021 -24810980.818 -486318.594 10 0 60913 45000.00000 0 5825149.236 -24717682.538 2730420.429 10 0 60913 45900.00000 0 5574754.806 -24222073.289 5894324.372 10 0 60913 46800.00000 0 5331632.772 -23329076.352 8944212.684 10 0 60913 47700.00000 0 5150524.321 -22056861.988 11821149.520 10 0 60913 48600.00000 0 5082010.274 -20436184.626 14469566.149 10 0 60913 49500.00000 0 5170173.429 -18509216.333 16838316.853 10 0 60913 50400.00000 0 5450541.910 -16327925.039 18881649.495 10 0 60913 51300.00000 0 5948398.928 -13952064.189 20560073.749 10 0 60913 52200.00000 0 6677529.228 -11446856.015 21841111.821 10 0 60913 53100.00000 0 7639454.693 -8880462.794 22699918.520 10 0 60913 54000.00000 0 8823191.642 -6321348.866 23119759.709 10 0 60913 54900.00000 0 10205541.345 -3835640.523 23092340.405 10 0 60913 55800.00000 0 11751903.501 -1484591.146 22617976.074 10 0 60913 56700.00000 0 13417581.250 677745.122 21705603.156 10 0 60913 57600.00000 0 15149525.970 2606535.979 20372627.339 10 0 60913 58500.00000 0 16888451.847 4267806.545 18644610.769 10 0 60913 59400.00000 0 18571234.416 5639620.020 16554802.175 10 0 60913 60300.00000 0 20133494.890 6712753.830 14143516.719 10 0 60913 61200.00000 0 21512263.398 7490842.136 11457375.436 10 0 60913 62100.00000 0 22648610.025 7989977.692 8548417.047 10 0 60913 63000.00000 0 23490132.802 8237788.661 5473097.868 10 0 60913 63900.00000 0 23993196.819 8272028.312 2291198.377 10 0 60913 64800.00000 0 24124828.318 8138736.578 -935342.566 10 0 60913 65700.00000 0 23864181.550 7890051.184 -4143642.720 10 0 60913 66600.00000 0 23203514.001 7581761.631 -7271115.931 10 0 60913 67500.00000 0 22148626.370 7270710.970 -10256710.342 10 0 60913 68400.00000 0 20718746.583 7012157.316 -13042119.315 10 0 60913 69300.00000 0 18945861.198 6857209.247 -15572939.355 10 0 60913 70200.00000 0 16873521.448 6850446.153 -17799750.464 10 0 60913 71100.00000 0 14555173.961 7027826.795 -19679096.084 10 0 60913 72000.00000 0 12052086.769 7414976.650 -21174342.126 10 0 60913 72900.00000 0 9430958.591 8025928.178 -22256397.406 10 0 60913 73800.00000 0 6761312.722 8862368.293 -22904281.077 10 0 60913 74700.00000 0 4112785.900 9913425.252 -23105526.077 10 0 60913 75600.00000 0 1552426.432 11156003.827 -22856411.329 10 0 60913 76500.00000 0 -857885.011 12555653.990 -22162019.106 10 0 60913 77400.00000 0 -3063784.302 14067935.516 -21036117.669 10 0 60913 78300.00000 0 -5020445.269 15640219.916 -19500872.872 10 0 60913 79200.00000 0 -6694190.752 17213852.697 -17586395.786 10 0 60913 80100.00000 0 -8063628.242 18726583.986 -15330136.641 10 0 60913 81000.00000 0 -9120265.417 20115164.591 -12776138.217 10 0 60913 81900.00000 0 -9868583.012 21317998.058 -9974164.434 10 0 60913 82800.00000 0 -10325565.237 22277737.339 -6978722.116 10 0 60913 83700.00000 0 -10519710.683 22943717.567 -3847995.724 10 0 60913 84600.00000 0 -10489568.142 23274123.685 -642716.230 10 0 60913 85500.00000 0 -10281861.264 23237803.215 2575013.704 10 0 60914 0.00000 0 -9949282.682 22815649.592 5742915.319 10 0 60914 900.00000 0 -9548051.252 22001499.228 8799729.208 10 0 60914 1800.00000 0 -9135335.944 20802506.671 11686384.036 10 0 60914 2700.00000 0 -8766653.812 19238982.373 14347122.819 10 0 60914 3600.00000 0 -8493351.051 17343700.782 16730562.186 10 0 60914 4500.00000 0 -8360271.684 15160707.339 18790667.481 10 0 60914 5400.00000 0 -8403710.600 12743673.350 20487626.285 10 0 60914 6300.00000 0 -8649735.779 10153865.780 21788605.131 10 0 60914 7200.00000 0 -9112949.424 7457814.421 22668376.162 10 0 60914 8100.00000 0 -9795739.818 4724770.976 23109802.647 10 0 60914 9000.00000 0 -10688055.884 2024062.941 23104174.523 10 0 60914 9900.00000 0 -11767715.175 -577550.415 22651387.406 10 0 60914 10800.00000 0 -13001234.413 -3018412.558 21759960.973 10 0 60914 11700.00000 0 -14345150.244 -5244291.316 20446895.117 10 0 60914 12600.00000 0 -15747777.615 -7210392.370 18737364.940 10 0 60914 13500.00000 0 -17151334.771 -8882981.457 16664258.392 10 0 60914 14400.00000 0 -18494348.150 -10240547.616 14267563.276 10 0 60914 15300.00000 0 -19714237.985 -11274458.290 11593613.278 10 0 60914 16200.00000 0 -20749976.994 -11989077.898 8694205.683 10 0 60914 17100.00000 0 -21544710.416 -12401343.732 5625606.364 10 0 60914 18000.00000 0 -22048226.234 -12539815.905 2447460.436 10 0 60914 18900.00000 0 -22219169.848 -12443240.581 -778370.507 10 0 60914 19800.00000 0 -22026907.524 -12158686.795 -3989021.577 10 0 60914 20700.00000 0 -21452957.329 -11739335.879 -7121863.471 10 0 60914 21600.00000 0 -20491924.432 -11242017.977 -10115741.372 10 0 60914 22500.00000 0 -19151898.778 -10724601.471 -12912187.826 10 0 60914 23400.00000 0 -17454296.252 -10243347.894 -15456583.833 10 0 60914 24300.00000 0 -15433148.575 -9850346.622 -17699243.509 10 0 60914 25200.00000 0 -13133870.990 -9591140.282 -19596399.417 10 0 60914 26100.00000 0 -10611559.489 -9502643.451 -21111067.864 10 0 60914 27000.00000 0 -7928889.506 -9611444.401 -22213776.421 10 0 60914 27900.00000 0 -5153705.019 -9932562.778 -22883139.060 10 0 60914 28800.00000 0 -2356400.067 -10468716.198 -23106267.769 10 0 60914 29700.00000 0 392796.874 -11210126.573 -22879013.201 10 0 60914 30600.00000 0 3026521.547 -12134873.660 -22206030.593 10 0 60914 31500.00000 0 5482842.708 -13209779.780 -21100670.876 10 0 60914 32400.00000 0 7707594.329 -14391787.020 -19584700.478 10 0 60914 33300.00000 0 9656374.983 -15629767.446 -17687856.741 10 0 60914 34200.00000 0 11296132.773 -16866688.636 -15447249.055 10 0 60914 35100.00000 0 12606272.001 -18042042.222 -12906618.748 10 0 60914 36000.00000 0 13579238.239 -19094432.394 -10115473.328 10 0 60914 36900.00000 0 14220560.474 -19964215.045 -7128113.004 10 0 60914 37800.00000 0 14548351.794 -20596076.609 -4002569.148 10 0 60914 38700.00000 0 14592292.633 -20941444.693 -799475.871 10 0 60914 39600.00000 0 14392141.916 -20960630.029 2419103.202 10 0 60914 40500.00000 0 13995840.762 -20624610.971 5590870.305 10 0 60914 41400.00000 0 13457289.875 -19916386.879 8654488.442 10 0 60914 42300.00000 0 12833894.712 -18831844.826 11550753.487 10 0 60914 43200.00000 0 12183981.619 -17380104.311 14223721.990 10 0 60914 44100.00000 0 11564192.836 -15583326.018 16621774.379 10 0 60914 45000.00000 0 11026968.693 -13475992.638 18698594.560 10 0 60914 45900.00000 0 10618221.326 -11103691.051 20414048.759 10 0 60914 46800.00000 0 10375296.135 -8521445.252 21734948.228 10 0 60914 47700.00000 0 10325305.325 -5791667.474 22635682.500 10 0 60914 48600.00000 0 10483902.649 -2981810.236 23098711.991 10 0 60914 49500.00000 0 10854550.624 -161814.066 23114911.009 10 0 60914 50400.00000 0 11428311.506 2598545.887 22683754.508 10 0 60914 51300.00000 0 12184172.074 5232306.896 21813344.362 10 0 60914 52200.00000 0 13089890.558 7677851.697 20520273.426 10 0 60914 53100.00000 0 14103332.485 9881223.928 18829328.334 10 0 60914 54000.00000 0 15174241.918 11798130.675 16773034.693 10 0 60914 54900.00000 0 16246376.093 13395548.986 14391051.229 10 0 60914 55800.00000 0 17259915.686 14652868.943 11729422.422 10 0 60914 56700.00000 0 18154050.636 15562524.584 8839702.136 10 0 60914 57600.00000 0 18869633.106 16130085.090 5777963.675 10 0 60914 58500.00000 0 19351785.316 16373801.092 2603714.562 10 0 60914 59400.00000 0 19552350.925 16323624.121 -621263.187 10 0 60914 60300.00000 0 19432084.428 16019739.819 -3834124.366 10 0 60914 61200.00000 0 18962483.522 15510676.695 -6972198.816 10 0 60914 62100.00000 0 18127184.228 14851070.857 -9974230.944 10 0 60914 63000.00000 0 16922857.016 14099182.371 -12781594.497 10 0 60914 63900.00000 0 15359563.641 13314270.050 -15339456.787 10 0 60914 64800.00000 0 13460557.623 12553937.757 -17597867.665 10 0 60914 65700.00000 0 11261535.400 11871566.698 -19512750.215 10 0 60914 66600.00000 0 8809369.020 11313944.374 -21046772.375 10 0 60914 67500.00000 0 6160373.572 10919192.143 -22170081.551 10 0 60914 68400.00000 0 3378182.472 10715080.169 -22860887.459 10 0 60914 69300.00000 0 531320.459 10717801.483 -23105881.890 10 0 60914 70200.00000 0 -2309423.299 10931256.785 -22900487.760 10 0 60914 71100.00000 0 -5073711.471 11346879.437 -22248933.525 10 0 60914 72000.00000 0 -7694350.309 11944006.743 -21164152.694 10 0 60914 72900.00000 0 -10109844.637 12690780.256 -19667511.806 10 0 60914 73800.00000 0 -12266710.191 13545535.331 -17788373.612 10 0 60914 74700.00000 0 -14121448.112 14458619.564 -15563505.433 10 0 60914 75600.00000 0 -15642101.155 15374561.843 -13036345.583 10 0 60914 76500.00000 0 -16809329.123 16234499.313 -10256143.348 10 0 60914 77400.00000 0 -17616961.407 16978759.096 -7276990.287 10 0 60914 78300.00000 0 -18072006.613 17549485.644 -4156762.516 10 0 60914 79200.00000 0 -18194121.931 17893203.136 -955994.987 10 0 60914 80100.00000 0 -18014567.286 17963205.617 2263290.090 10 0 60914 81000.00000 0 -17574690.510 17721675.186 5438778.129 10 0 60914 81900.00000 0 -16924008.912 17141440.280 8509057.648 10 0 60914 82800.00000 0 -16117968.813 16207301.330 11414794.022 10 0 60914 83700.00000 0 -15215477.455 14916869.142 14099859.950 10 0 60914 84600.00000 0 -14276310.491 13280881.482 16512402.238 10 0 60914 85500.00000 0 -13358502.892 11322984.746 18605825.880 99